sat.trackr.live / text

‹ back to catalog

STARLINK-36058

NORAD 66591 · 2025-270D

PAYLOAD ACTIVE UNKNOWN

§ Identity

Operator
Country
US
Launch date
2025-11-22
Launch site
AFETR
Launch vehicle
Mass (kg)
RCS (m²)

Purposes: comms

External: N2YO · Heavens-Above · Gunter

§ Orbital elements

Epoch: 2026-05-24T22:04:57.792576Z

Period
94.27 min
Inclination
43.0011°
Eccentricity
0.0001203
Mean motion
15.27594241 rev/d
Perigee alt
482.2 km
Apogee alt
483.8 km
Semi-major
6,861.1 km
B*
4.6292e-4
RAAN
345.7328°
Arg perigee
275.4334°
Mean anomaly
84.6380°
Rev number
2,936

§ Raw data

STARLINK-360581 66591U 25270D   26144.92011334  .00012504  00000+0  46292-3 0  99902 66591  43.0011 345.7328 0001203 275.4334  84.6380 15.27594241 29363

JSON: /api/v1/satellites/66591 · /tle

For live sub-satellite position, see the globe view (requires WebGL).

§ Visibility from observer

Set your observer location to see the next 7 days of passes ≥ 10°. The values pass through the URL so the page stays shareable.

No JS? Fill the form by hand. The geolocation button needs JavaScript.